FENGYUN 1C DEB

Satellite information

Favourite Embed

Satellite Type and Status

DEBRISIN ORBIT

Key statistics

Satellite FENGYUN 1C DEB at a glance.

Uptime

9668

Days in orbit

Revolutions

≈ 14.5

Per day

Orbit

SSO

Sun Synchronous Orbit

Inclination

98.5

Latest

Satellite identification and parameters

Extended collection of information and parameters for FENGYUN 1C DEB.

Object identification

Identified? True

Debris? True

Object name: FENGYUN 1C DEB

International designator: 1999-025CNL

Object number (NORAD): 31959

Object ID (CCSDS): 31959

Country: PEOPLES REPUBLIC OF CHINA (PRC)

Current information (Y/N): Y

RCS size: SMALL

Orbital parameters

Period: 99.623 minutes

Inclination: 98.5103 deg

SMA: 7118.682 km

Apoapsis: 762.083 km

Periapsis: 719.011 km

RAAN: 169.182 deg

Eccentricy: 0.00302527

Argument of periapsis: 308.6377 deg

Mean anomaly: 51.2106 deg

Mean motion: 14.45451044 rev/day

Mean motion (dot): 0.00012129 rev/day2

B* drag term: 0.0034316556 1/REarth

Two-line elements (TLE)

Creation date: Oct. 26, 2025, 2:54 a.m.

Reference frame: TEME

Reference center: EARTH

Epoch: Oct. 25, 2025, 8:36 a.m. UTC

TLE line 0: 0 FENGYUN 1C DEB

TLE line 1: 1 31959U 99025CNL 25298.35850129 .00012129 00000-0 34317-2 0 9996

TLE line 2: 2 31959 98.5103 169.1820 0030253 308.6377 51.2106 14.45451044636540

Live tracking on map

Real-time ground track for satellite FENGYUN 1C DEB.

In-orbit conjunctions

A list of the most updated potential collisions computed for object FENGYUN 1C DEB.

Target Orbit TCA Probability of collision Miss distance Type
FENGYUN 1C DEB SSO 2025-01-09 08:29:19 0.0001411429 232.0 (m) DEBRIS
SL-8 R/B LEO 2024-11-10 18:59:35 0.001500462 487.0 (m) ROCKET BODY
CZ-6A DEB LEO 2024-10-11 12:14:24 0.000507487 136.0 (m) DEBRIS

Associated space launch

Chinese polar orbiting meteorological satellite

FENGYUN 1C DEB was lifted into orbit during the mission ‘Long March 4B | Feng Yun 1C’, on board a Long March 4B space rocket.

The launch took place on May 10, 1999, 1:33 a.m. from Launch Complex 7.

For more information about the launch, click the button.

Launch to space Long March 4B | Feng Yun 1C
Long March 4B | Feng Yun 1C

Agency: N/A

Status: Launch Successful

Launch date: May 10, 1999, 1:33 a.m. UTC

Rocket: Long March 4B

Launch pad: Launch Complex 7

Location: Taiyuan Satellite Launch Center, People's Republic of China

...

Latest news about this satellite

There are no fresh news available about this satellite. Check back as we update our databases every day.


Newsletter sign-up

Weekly statistics, charts and insights to help you stay on top of the space industry.